Darbhanga Airport

Jump to: basic info | weather | runways | comments

Related pages: nearby airports | nearby navaids | notams | map

Basic information (top)

Codes: VE89
Location: lon 26.192801, lat 85.916901, elev 156 ft / 48 m msl
Status: small_airport

Weather (top)

Current conditions for Lok Nayak Jayaprakash Airport 58nm (107km) SW (rec'd 2014/11/27 14:50Z):

VEPT 271450Z 00000KT 1800 BR NSC 16/14 Q1012 NOSIG

Airport forecast for Lok Nayak Jayaprakash Airport 58nm (107km) SW (rec'd 2014/11/25 18:18Z):

TAF VEPT 251500Z 2518/2624 26002KT 1800 BR NSC 
      BECMG 2522/2524 1500 BR 
      BECMG 2606/2608 3000 HZ 
      BECMG 2622/2624 1500 BR

Runways (top)

10/28: 9,000 x 150 ft (2,743 x 46 m) — paved — not lighted

Latest comments (top)

Requested all the concern person to start Darbhanga Airport: Dear Sir, as you know most of the ... [read]

Darbhanga Airport: Dear Sir, Kindly requested to Please, ... [read]

START DARBHANGA AIR PORT: I REQUESTE TO CENTRAL AND BIHAR ... [read]

Please apeel to start the airport: Dear Kindly Request PM TO Start The ... [read]

airline service: Please please start airline services ... [read]

See all 23 comments for Darbhanga Airport

More... (top)

See also NOTAMs and nearby airports and navaids, or visit the Darbhanga Airport page at the main OurAirports website..